When you browse on this site, cookies collect data to enhance your experience and personalize the content and advertising you see.
Visit our Privacy Policy to learn more. By continuing to use the site, you agree to this use of cookies and data.
  • în România
  • Lista ţărilor
  • Pe 7 zile
  • Temperatura apei
  • Hartă satelitară
  • Meteo pe hartă
  • Widget-uri
  • user-avatar
    Intrare

    Meteo pe oră la Senkovo

    Astăzi, 24 Martie, Duminică

    Timp Temperatura Precipitaţii Vânt Presiune Umiditate
    00:00 -1°C° 0.7 mm 4 m/s 741 mmHg 80%
    01:00 +1°C° 0.7 mm 3 m/s 740 mmHg 80%
    02:00 +1°C° 0 mm 3 m/s 739 mmHg 82%
    03:00 +1°C° 0.3 mm 3 m/s 738 mmHg 83%
    04:00 +1°C° 0.3 mm 3 m/s 738 mmHg 84%
    05:00 +1°C° 0.3 mm 3 m/s 737 mmHg 85%
    06:00 +1°C° 0 mm 3 m/s 737 mmHg 86%
    07:00 0°C° 0 mm 4 m/s 737 mmHg 87%
    08:00 +1°C° 0 mm 4 m/s 737 mmHg 89%
    09:00 +1°C° 0 mm 4 m/s 737 mmHg 84%
    10:00 +2°C° 0 mm 5 m/s 737 mmHg 79%
    11:00 +2°C° 0 mm 5 m/s 737 mmHg 75%
    12:00 +3°C° 0.2 mm 5 m/s 737 mmHg 69%
    13:00 +3°C° 0.2 mm 5 m/s 736 mmHg 63%
    14:00 +4°C° 0.2 mm 6 m/s 736 mmHg 58%
    15:00 +3°C° 0.1 mm 5 m/s 737 mmHg 60%
    16:00 +4°C° 0.1 mm 4 m/s 737 mmHg 62%
    17:00 +3°C° 0.1 mm 3 m/s 737 mmHg 64%
    18:00 +2°C° 0 mm 3 m/s 737 mmHg 67%
    19:00 +1°C° 0 mm 3 m/s 737 mmHg 71%
    20:00 0°C° 0 mm 3 m/s 737 mmHg 74%
    21:00 -1°C° 0 mm 2 m/s 737 mmHg 76%
    22:00 -2°C° 0 mm 2 m/s 737 mmHg 77%
    23:00 -2°C° 0 mm 2 m/s 737 mmHg 79%

    Mâine, 25 Martie, Luni

    Timp Temperatura Precipitaţii Vânt Presiune Umiditate
    00:00 -2°C° 0 mm 2 m/s 737 mmHg 80%
    01:00 -3°C° 0 mm 2 m/s 737 mmHg 81%
    02:00 -3°C° 0 mm 2 m/s 737 mmHg 82%
    03:00 -3°C° 0 mm 2 m/s 737 mmHg 82%
    04:00 -3°C° 0 mm 2 m/s 737 mmHg 81%
    05:00 -3°C° 0 mm 2 m/s 736 mmHg 81%
    06:00 -2°C° 0 mm 3 m/s 736 mmHg 77%
    07:00 -1°C° 0 mm 3 m/s 736 mmHg 72%
    08:00 0°C° 0 mm 3 m/s 736 mmHg 68%
    09:00 +1°C° 0 mm 3 m/s 736 mmHg 61%
    10:00 +3°C° 0 mm 4 m/s 735 mmHg 54%
    11:00 +4°C° 0 mm 4 m/s 735 mmHg 47%
    12:00 +5°C° 0 mm 4 m/s 735 mmHg 46%
    13:00 +5°C° 0 mm 4 m/s 735 mmHg 45%
    14:00 +6°C° 0 mm 4 m/s 735 mmHg 44%
    15:00 +5°C° 0 mm 3 m/s 734 mmHg 50%
    16:00 +5°C° 0 mm 2 m/s 734 mmHg 55%
    17:00 +4°C° 0 mm 2 m/s 734 mmHg 61%
    18:00 +3°C° 0 mm 2 m/s 734 mmHg 66%
    19:00 +1°C° 0 mm 2 m/s 734 mmHg 72%
    20:00 -1°C° 0 mm 2 m/s 734 mmHg 77%
    21:00 -1°C° 0 mm 2 m/s 734 mmHg 78%
    22:00 -1°C° 0 mm 2 m/s 733 mmHg 79%
    23:00 -1°C° 0 mm 2 m/s 733 mmHg 80%

    Poimâine, 26 Martie, Marţi

    Timp Temperatura Precipitaţii Vânt Presiune Umiditate
    00:00 -1°C° 0 mm 2 m/s 733 mmHg 81%
    01:00 -1°C° 0 mm 2 m/s 733 mmHg 83%
    02:00 -1°C° 0 mm 2 m/s 733 mmHg 85%
    03:00 -1°C° 0.1 mm 2 m/s 732 mmHg 87%
    04:00 -2°C° 0.1 mm 2 m/s 732 mmHg 90%
    05:00 -2°C° 0.1 mm 2 m/s 732 mmHg 92%
    06:00 -2°C° 0.5 mm 3 m/s 732 mmHg 91%
    07:00 -1°C° 0.5 mm 3 m/s 732 mmHg 89%
    08:00 -2°C° 0.5 mm 4 m/s 732 mmHg 88%
    09:00 -2°C° 0.2 mm 4 m/s 732 mmHg 81%
    10:00 -1°C° 0.2 mm 4 m/s 732 mmHg 75%
    11:00 -1°C° 0.2 mm 4 m/s 733 mmHg 69%
    12:00 -1°C° 0.1 mm 4 m/s 733 mmHg 64%
    13:00 -1°C° 0.1 mm 4 m/s 733 mmHg 60%
    14:00 -1°C° 0.1 mm 4 m/s 733 mmHg 56%
    15:00 -1°C° 0 mm 4 m/s 733 mmHg 56%
    16:00 0°C° 0 mm 3 m/s 733 mmHg 56%
    17:00 -1°C° 0 mm 2 m/s 733 mmHg 56%
    18:00 -2°C° 0 mm 2 m/s 734 mmHg 62%
    19:00 -3°C° 0 mm 2 m/s 734 mmHg 68%
    20:00 -3°C° 0 mm 1 m/s 734 mmHg 75%
    21:00 -3°C° 0 mm 1 m/s 735 mmHg 76%
    22:00 -3°C° 0 mm 1 m/s 735 mmHg 77%
    23:00 -3°C° 0 mm 1 m/s 735 mmHg 78%

    27 Martie, Miercuri

    Timp Temperatura Precipitaţii Vânt Presiune Umiditate
    00:00 -5°C° 0 mm 2 m/s 736 mmHg 79%
    01:00 -4°C° 0 mm 2 m/s 737 mmHg 80%
    02:00 -5°C° 0 mm 3 m/s 737 mmHg 82%
    03:00 -5°C° 0 mm 3 m/s 737 mmHg 82%
    04:00 -7°C° 0 mm 4 m/s 738 mmHg 83%
    05:00 -7°C° 0 mm 4 m/s 738 mmHg 84%
    06:00 -5°C° 0.1 mm 4 m/s 738 mmHg 81%
    07:00 -6°C° 0.1 mm 5 m/s 739 mmHg 78%
    08:00 -5°C° 0.1 mm 5 m/s 739 mmHg 75%
    09:00 -4°C° 0.1 mm 6 m/s 740 mmHg 70%
    10:00 -4°C° 0.1 mm 6 m/s 741 mmHg 66%
    11:00 -3°C° 0.1 mm 6 m/s 741 mmHg 61%
    12:00 -3°C° 0.1 mm 6 m/s 742 mmHg 61%
    13:00 -2°C° 0.1 mm 6 m/s 742 mmHg 60%
    14:00 -2°C° 0.1 mm 6 m/s 743 mmHg 59%
    15:00 -1°C° 0 mm 5 m/s 743 mmHg 60%
    16:00 -1°C° 0 mm 5 m/s 744 mmHg 60%
    17:00 -1°C° 0 mm 5 m/s 744 mmHg 61%
    18:00 -3°C° 0 mm 4 m/s 745 mmHg 67%
    19:00 -4°C° 0 mm 3 m/s 746 mmHg 73%
    20:00 -4°C° 0 mm 2 m/s 746 mmHg 78%
    21:00 -4°C° 0 mm 2 m/s 746 mmHg 80%
    22:00 -4°C° 0 mm 2 m/s 747 mmHg 81%
    23:00 -5°C° 0 mm 2 m/s 747 mmHg 82%

    28 Martie, Joi

    Timp Temperatura Precipitaţii Vânt Presiune Umiditate
    00:00 -5°C° 0 mm 2 m/s 747 mmHg 82%
    01:00 -5°C° 0 mm 2 m/s 747 mmHg 82%
    02:00 -5°C° 0 mm 2 m/s 747 mmHg 82%
    03:00 -5°C° 0 mm 2 m/s 747 mmHg 80%
    04:00 -5°C° 0 mm 2 m/s 747 mmHg 78%
    05:00 -6°C° 0 mm 3 m/s 747 mmHg 76%
    06:00 -5°C° 0 mm 3 m/s 747 mmHg 71%
    07:00 -2°C° 0 mm 3 m/s 747 mmHg 65%
    08:00 -2°C° 0 mm 4 m/s 748 mmHg 60%
    09:00 -1°C° 0 mm 4 m/s 747 mmHg 58%
    10:00 +1°C° 0 mm 4 m/s 747 mmHg 56%
    11:00 +2°C° 0 mm 5 m/s 747 mmHg 54%
    12:00 +3°C° 0 mm 5 m/s 747 mmHg 54%
    13:00 +3°C° 0 mm 5 m/s 746 mmHg 54%
    14:00 +5°C° 0 mm 5 m/s 746 mmHg 54%
    15:00 +3°C° 0 mm 5 m/s 746 mmHg 59%
    16:00 +4°C° 0 mm 4 m/s 745 mmHg 63%
    17:00 +4°C° 0 mm 4 m/s 745 mmHg 68%
    18:00 +3°C° 0 mm 4 m/s 744 mmHg 74%
    19:00 +1°C° 0 mm 4 m/s 744 mmHg 79%
    20:00 0°C° 0 mm 4 m/s 744 mmHg 85%
    21:00 0°C° 0 mm 5 m/s 743 mmHg 85%
    22:00 0°C° 0 mm 5 m/s 743 mmHg 84%
    23:00 +1°C° 0 mm 5 m/s 742 mmHg 84%

    29 Martie, Vineri

    Timp Temperatura Precipitaţii Vânt Presiune Umiditate
    00:00 +1°C° 0 mm 6 m/s 742 mmHg 85%
    01:00 +1°C° 0 mm 6 m/s 741 mmHg 85%
    02:00 +1°C° 0 mm 6 m/s 740 mmHg 86%
    03:00 +1°C° 0.1 mm 6 m/s 740 mmHg 84%
    04:00 +1°C° 0.1 mm 6 m/s 740 mmHg 82%
    05:00 +1°C° 0.1 mm 6 m/s 740 mmHg 81%
    06:00 -1°C° 0 mm 6 m/s 741 mmHg 77%
    07:00 -1°C° 0 mm 6 m/s 741 mmHg 72%
    08:00 -2°C° 0 mm 6 m/s 742 mmHg 68%
    09:00 -1°C° 0 mm 6 m/s 742 mmHg 67%
    10:00 +1°C° 0 mm 6 m/s 743 mmHg 65%
    11:00 +2°C° 0 mm 6 m/s 743 mmHg 64%
    12:00 +2°C° 0 mm 6 m/s 744 mmHg 64%
    13:00 +2°C° 0 mm 5 m/s 744 mmHg 64%
    14:00 +3°C° 0 mm 5 m/s 745 mmHg 63%
    15:00 +4°C° 0 mm 4 m/s 745 mmHg 65%
    16:00 +4°C° 0 mm 4 m/s 745 mmHg 67%
    17:00 +3°C° 0 mm 3 m/s 746 mmHg 68%
    18:00 +2°C° 0 mm 3 m/s 746 mmHg 75%
    19:00 +2°C° 0 mm 2 m/s 746 mmHg 82%
    20:00 -1°C° 0 mm 2 m/s 747 mmHg 88%
    21:00 -1°C° 0 mm 2 m/s 747 mmHg 89%
    22:00 +1°C° 0 mm 1 m/s 747 mmHg 89%
    23:00 0°C° 0 mm 1 m/s 747 mmHg 90%
    Arată mai mult